Temp
19 18 18 18 18 18 18 18 18 17 17 17 17 18 18 18 17 16 16 16 15 15 15 14 14 14 13 13 13 12 12 12 12 12 12 11 11 11 11 11 10 10
19 18 18 18 18 18 18 18 17 17 17 17 17 18 18 17 17 16 16 15 15 15 15 14 14 14 13 13 12 12 12 12 12 12 11 11 11 11 11 10 10 10
18 18 18 18 18 18 18 18 17 17 17 17 17 17 17 17 16 16 15 15 15 15 14 14 14 13 13 13 12 12 12 12 12 11 11 11 11 11 10 10 9 9
18 18 18 18 18 18 17 17 17 17 17 17 17 17 16 16 16 15 15 15 14 14 14 14 13 13 13 12 12 11 11 11 11 11 10 10 11 10 10 9 9 10
18 18 18 17 17 17 17 16 17 17 16 16 16 16 16 16 15 15 15 14 14 14 14 13 13 13 12 12 12 11 11 11 11 10 10 10 10 10 9 9 9 10
18 18 18 17 17 17 16 16 16 16 16 16 16 16 16 15 15 15 14 14 14 13 13 13 12 12 12 11 11 11 11 10 10 10 10 9 9 9 9 9 9 10
18 18 18 17 17 16 16 16 16 16 16 16 15 15 15 15 15 15 14 14 13 13 13 12 12 12 11 11 11 11 10 10 10 10 10 10 10 9 9 10 10 10
18 18 18 17 17 16 16 16 16 16 15 15 15 16 15 15 15 14 14 13 13 13 12 12 12 11 11 11 10 10 10 10 10 10 10 10 10 10 10 10 10 10
18 18 18 17 17 16 16 16 16 16 15 15 15 16 15 15 14 14 13 13 13 12 12 12 12 11 11 10 10 10 10 10 10 10 10 10 10 10 10 10 10 10
18 18 18 17 17 17 17 16 16 16 15 15 15 15 15 14 14 14 13 13 12 12 12 12 11 11 10 10 10 10 10 10 10 10 10 11 10 10 10 10 10 10
18 18 18 18 18 17 17 17 16 16 15 15 15 15 14 14 14 13 13 13 13 12 12 11 11 10 10 10 10 10 10 10 10 10 10 10 10 10 10 10 10 10
19 18 18 18 18 18 17 17 16 16 16 15 15 15 14 14 14 14 14 13 13 13 12 11 11 10 9 9 9 10 10 10 10 10 10 10 10 10 10 10 10 10
19 19 19 19 18 18 17 17 16 16 16 16 15 15 15 15 15 15 14 13 13 13 12 12 11 10 9 9 9 9 9 10 10 9 9 10 10 10 10 10 10 10
20 19 19 19 19 18 17 17 17 16 16 15 15 15 15 15 15 15 14 13 13 13 12 12 11 10 9 9 9 9 9 9 9 9 9 10 10 10 10 10 10 10
19 19 19 19 18 18 18 17 17 16 16 15 15 15 15 15 15 15 14 14 13 13 12 12 10 9 9 9 9 9 9 9 9 9 10 10 10 10 10 10 10 10
19 19 19 19 18 18 18 17 17 16 16 16 15 15 15 15 15 15 14 14 14 13 13 12 10 9 9 9 9 9 9 9 9 9 9 10 10 10 10 10 10 9
19 19 19 18 18 18 18 17 17 16 16 16 16 16 15 15 15 15 15 14 14 13 13 12 10 9 9 9 9 9 9 9 9 9 9 10 10 10 10 10 10 9
19 19 18 18 18 18 18 17 17 16 16 16 16 16 15 15 15 15 15 14 14 14 13 13 11 11 10 10 10 9 9 9 9 9 9 9 9 9 10 10 10 9
19 18 18 18 18 18 18 17 17 17 16 16 16 15 15 15 15 15 15 15 15 14 14 14 13 12 12 11 10 9 9 9 9 9 9 9 9 9 10 10 9 9
18 18 18 18 18 18 17 17 17 17 16 16 16 15 15 16 16 16 15 15 15 15 15 15 14 13 12 11 10 9 8 8 9 9 9 9 9 9 9 9 9 9
19 18 18 18 17 17 17 17 17 17 16 16 16 16 16 16 16 16 16 16 15 15 15 15 15 14 13 12 10 9 8 8 8 9 9 9 9 9 9 9 9 9
18 18 18 18 18 17 17 17 17 17 17 16 16 16 16 16 16 16 16 16 16 15 15 15 15 14 14 13 12 11 9 8 8 9 9 9 9 9 9 9 9 9
18 18 18 18 18 18 18 18 17 17 17 17 16 16 16 16 16 16 16 16 16 16 16 15 15 15 14 14 13 12 11 10 9 9 9 9 9 9 9 9 9 9
18 18 18 18 17 17 17 17 18 18 17 17 17 17 16 16 16 16 16 16 16 16 15 15 15 15 14 14 13 12 11 10 9 10 9 9 8 9 9 9 8 8
17 17 18 18 18 17 17 17 17 17 17 17 17 17 16 16 16 16 16 16 16 16 15 15 15 15 14 13 12 11 10 10 9 9 9 8 8 8 8 8 8 8
17 17 17 17 17 17 17 17 17 17 17 17 16 16 16 16 16 16 16 16 15 15 15 15 15 14 13 12 11 10 9 9 9 9 9 8 8 8 8 8 8 7
Height
1493 1494 1495 1496 1497 1498 1500 1500 1501 1502 1503 1504 1505 1507 1508 1509 1510 1511 1513 1514 1515 1517 1518 1519 1520 1521 1522 1523 1524 1524 1525 1526 1527 1528 1528 1529 1530 1531 1531 1532 1533 1534
1489 1490 1491 1492 1492 1493 1495 1496 1497 1498 1499 1500 1501 1502 1503 1504 1505 1507 1508 1510 1511 1512 1513 1514 1515 1516 1517 1518 1519 1520 1520 1521 1522 1523 1524 1524 1525 1526 1526 1527 1528 1528
1485 1485 1486 1487 1488 1489 1490 1492 1493 1494 1495 1496 1497 1498 1499 1500 1501 1503 1504 1505 1506 1508 1509 1510 1511 1512 1513 1514 1515 1515 1516 1516 1517 1519 1519 1520 1521 1521 1521 1522 1522 1522
1481 1481 1482 1483 1484 1485 1487 1488 1488 1489 1490 1491 1493 1494 1495 1496 1497 1499 1500 1501 1502 1503 1504 1506 1507 1508 1509 1510 1510 1510 1511 1512 1513 1514 1515 1514 1515 1515 1515 1517 1517 1518
1477 1477 1478 1479 1480 1481 1482 1482 1483 1484 1486 1487 1489 1490 1491 1492 1493 1494 1495 1496 1498 1499 1500 1501 1502 1503 1504 1505 1506 1506 1506 1507 1508 1510 1510 1509 1510 1510 1511 1512 1513 1514
1473 1473 1474 1475 1476 1477 1477 1477 1479 1480 1481 1483 1485 1486 1487 1488 1489 1490 1491 1492 1494 1495 1496 1497 1498 1499 1500 1501 1501 1501 1502 1503 1504 1505 1505 1505 1506 1506 1507 1508 1509 1510
1469 1470 1470 1471 1472 1472 1473 1473 1474 1475 1476 1478 1480 1481 1482 1483 1484 1486 1487 1488 1489 1491 1492 1493 1493 1494 1495 1496 1497 1497 1498 1499 1500 1501 1501 1501 1502 1503 1504 1505 1505 1506
1466 1466 1467 1467 1467 1468 1468 1468 1469 1471 1472 1474 1475 1476 1478 1479 1480 1482 1483 1484 1485 1486 1487 1488 1489 1490 1491 1492 1493 1493 1494 1495 1496 1497 1497 1497 1498 1498 1499 1500 1501 1501
1462 1462 1462 1463 1463 1463 1463 1464 1465 1467 1468 1469 1470 1472 1473 1474 1476 1477 1479 1480 1480 1481 1482 1483 1484 1485 1487 1488 1488 1489 1490 1491 1492 1492 1493 1493 1493 1494 1495 1496 1497 1497
1458 1458 1458 1458 1458 1459 1459 1460 1461 1463 1464 1465 1466 1468 1469 1470 1472 1473 1474 1475 1476 1477 1478 1479 1480 1481 1482 1483 1484 1485 1486 1487 1488 1488 1488 1489 1490 1491 1492 1493 1494 1493
1454 1454 1454 1454 1455 1455 1455 1457 1458 1459 1460 1461 1462 1464 1465 1466 1467 1468 1469 1470 1471 1472 1473 1474 1475 1476 1477 1479 1480 1481 1482 1483 1483 1484 1484 1485 1486 1488 1489 1490 1490 1491
1451 1451 1451 1451 1451 1452 1452 1453 1454 1455 1456 1457 1458 1459 1460 1462 1463 1464 1465 1465 1466 1468 1468 1469 1470 1472 1473 1474 1475 1476 1477 1478 1479 1480 1481 1481 1483 1484 1485 1485 1486 1487
1447 1447 1447 1447 1448 1448 1449 1450 1450 1451 1452 1453 1454 1455 1456 1457 1458 1459 1460 1461 1462 1463 1464 1465 1466 1467 1468 1469 1471 1472 1473 1474 1475 1476 1477 1478 1479 1480 1481 1481 1482 1482
1444 1444 1443 1443 1444 1444 1445 1445 1446 1447 1447 1448 1449 1450 1451 1453 1453 1455 1456 1456 1457 1458 1459 1460 1461 1462 1463 1465 1466 1468 1469 1469 1471 1472 1473 1474 1475 1476 1476 1477 1477 1477
1440 1440 1439 1439 1439 1439 1440 1440 1441 1442 1443 1444 1445 1446 1447 1448 1449 1450 1451 1452 1453 1454 1455 1456 1456 1457 1459 1460 1462 1463 1464 1465 1466 1468 1469 1470 1471 1471 1472 1472 1473 1474
1436 1435 1435 1435 1435 1435 1435 1436 1436 1437 1438 1439 1440 1441 1442 1444 1445 1445 1446 1447 1448 1449 1450 1451 1451 1453 1455 1456 1458 1459 1460 1461 1462 1464 1465 1465 1466 1467 1467 1468 1468 1470
1432 1432 1431 1431 1431 1431 1431 1432 1432 1433 1434 1435 1436 1437 1438 1439 1440 1441 1442 1443 1444 1444 1445 1446 1447 1449 1450 1452 1453 1454 1456 1457 1458 1459 1460 1461 1462 1463 1463 1463 1464 1465
1430 1429 1428 1428 1428 1428 1428 1428 1429 1429 1430 1431 1432 1433 1434 1435 1436 1437 1438 1439 1439 1440 1441 1442 1443 1445 1446 1447 1448 1450 1451 1452 1454 1455 1456 1457 1458 1459 1459 1460 1460 1461
1427 1426 1426 1426 1425 1425 1425 1425 1426 1426 1427 1428 1429 1430 1431 1431 1432 1433 1434 1434 1435 1436 1437 1438 1439 1440 1441 1443 1444 1446 1447 1448 1450 1451 1452 1454 1455 1455 1456 1457 1457 1458
1425 1424 1424 1424 1423 1423 1423 1423 1424 1424 1424 1425 1426 1427 1427 1428 1429 1429 1430 1431 1432 1433 1434 1434 1436 1437 1438 1439 1440 1442 1443 1444 1446 1447 1449 1450 1451 1453 1453 1454 1454 1455
1422 1422 1422 1422 1421 1421 1421 1421 1422 1422 1422 1423 1423 1424 1424 1425 1425 1426 1427 1428 1428 1429 1430 1431 1432 1433 1434 1435 1436 1437 1439 1440 1442 1443 1444 1446 1448 1449 1450 1451 1451 1452
1419 1420 1419 1419 1419 1419 1419 1419 1420 1420 1420 1420 1421 1421 1421 1422 1422 1423 1423 1424 1424 1425 1426 1427 1428 1430 1430 1431 1432 1433 1434 1435 1437 1438 1440 1442 1443 1445 1446 1447 1448 1448
1416 1416 1416 1416 1416 1416 1416 1417 1417 1417 1418 1418 1418 1418 1418 1419 1419 1419 1420 1420 1421 1422 1423 1424 1425 1426 1427 1427 1428 1428 1429 1430 1432 1434 1436 1438 1440 1442 1443 1444 1444 1445
1412 1412 1412 1413 1413 1413 1414 1414 1414 1414 1414 1414 1415 1415 1415 1416 1416 1416 1417 1417 1418 1419 1420 1421 1422 1423 1423 1424 1424 1425 1425 1426 1427 1429 1432 1434 1437 1439 1440 1441 1442 1442
1408 1408 1408 1409 1409 1410 1410 1410 1410 1411 1411 1411 1411 1411 1412 1412 1413 1413 1414 1414 1415 1416 1417 1418 1419 1419 1420 1420 1420 1421 1421 1422 1423 1425 1427 1430 1434 1437 1439 1439 1440 1439
1403 1404 1404 1405 1405 1406 1406 1406 1406 1407 1407 1407 1407 1408 1408 1409 1409 1409 1410 1410 1411 1412 1413 1414 1415 1415 1416 1416 1417 1417 1418 1419 1420 1421 1423 1427 1431 1434 1437 1438 1438 1438
Wind_Speed
38 38 39 39 39 38 37 37 37 37 37 36 36 34 34 34 34 34 34 33 33 32 32 33 33 34 34 35 36 37 37 37 37 37 39 39 39 39 39 39 39 38
38 38 39 40 40 39 39 38 38 38 37 35 34 33 33 34 35 35 34 33 32 31 31 31 31 31 32 32 32 33 33 34 34 34 36 37 36 37 38 38 38 37
37 38 39 40 40 40 39 38 38 38 37 36 35 34 34 35 35 35 34 33 32 32 31 31 31 30 31 31 31 32 32 32 32 32 34 35 35 36 36 36 35 35
35 37 38 38 39 39 39 39 39 39 38 37 35 34 35 35 35 35 34 34 33 32 32 31 31 30 30 30 30 31 31 31 31 31 32 33 33 34 34 33 34 34
33 34 36 36 37 38 38 39 39 39 39 37 35 35 35 35 35 35 34 34 34 33 32 31 31 30 30 30 30 31 31 30 30 29 31 32 31 32 31 31 33 33
32 33 34 35 35 36 37 38 38 38 39 37 36 36 35 35 35 34 34 34 33 32 32 31 31 30 29 29 30 30 30 29 28 27 28 30 30 30 31 31 33 33
32 32 33 34 35 35 36 37 37 38 38 36 36 35 35 35 34 34 33 33 32 32 31 30 30 29 28 28 28 28 28 27 26 26 27 28 28 29 29 29 30 33
31 32 33 33 34 35 36 36 36 36 36 35 35 34 34 35 34 33 33 32 32 31 30 29 28 27 26 26 26 26 26 26 25 26 27 28 29 29 28 27 27 28
31 31 32 33 34 35 35 35 35 35 34 34 34 34 34 34 33 33 32 32 31 30 29 28 27 27 26 25 25 25 25 26 26 26 28 30 30 31 32 32 33 34
31 31 32 33 33 34 34 34 34 33 33 34 34 33 34 33 32 32 31 31 30 29 28 28 27 27 26 25 25 26 26 26 26 27 28 29 28 28 28 29 31 33
30 31 32 33 32 32 32 32 32 33 33 33 33 33 33 32 32 32 31 31 31 30 29 29 28 26 26 26 26 25 25 26 27 27 29 28 26 24 24 25 26 27
31 31 31 32 32 32 32 32 32 32 33 33 33 33 32 32 32 32 32 32 31 30 30 29 28 26 26 25 25 25 25 27 27 28 27 26 24 24 25 27 28 28
33 32 31 31 31 32 32 33 33 33 33 33 33 33 33 32 33 33 32 32 32 31 30 29 28 26 25 25 25 25 25 26 26 25 25 24 23 24 24 26 30 32
33 32 32 32 32 32 32 32 33 34 34 34 34 34 33 33 33 33 33 32 31 30 30 28 27 27 26 25 24 23 24 25 24 23 23 23 22 21 21 22 24 26
31 32 32 33 32 32 32 32 32 33 34 34 34 34 34 33 34 33 33 32 31 30 29 28 27 26 25 23 23 22 22 22 21 20 20 20 20 21 22 21 19 18
29 30 31 31 32 32 32 31 31 31 32 32 33 33 33 33 33 33 32 31 30 29 29 29 28 26 24 24 23 21 19 18 18 20 21 21 22 22 23 23 23 23
27 28 29 29 30 31 31 31 30 29 29 30 30 31 32 32 32 32 31 30 29 29 29 28 28 26 26 26 24 22 21 21 21 21 21 22 22 21 22 22 22 24
26 26 27 27 28 29 29 28 28 27 28 28 29 30 30 30 30 29 28 28 28 28 28 27 27 26 26 25 23 22 24 26 26 24 23 23 23 22 21 20 19 22
26 25 25 25 26 26 26 25 25 26 26 27 27 27 27 27 26 26 26 26 27 27 26 25 25 24 23 23 22 22 23 24 26 27 25 23 23 23 21 20 19 21
27 24 23 23 23 23 24 24 24 24 24 24 24 24 25 25 25 25 26 26 26 25 24 24 23 22 22 23 23 23 24 25 26 27 26 25 25 24 23 22 22 21
27 26 23 22 22 22 23 23 23 23 23 24 24 24 25 25 25 25 26 26 25 25 24 24 23 23 23 23 24 25 26 27 27 27 27 26 26 26 25 24 23 23
27 27 25 23 22 22 22 23 24 24 24 24 25 25 25 26 26 26 26 26 25 25 25 25 24 23 23 23 24 25 27 29 30 29 28 28 27 27 27 25 25 25
28 28 28 26 25 24 24 24 25 26 27 26 26 26 26 27 27 27 26 26 26 26 26 25 24 23 23 22 23 24 26 29 30 29 29 29 28 28 27 26 25 25
32 32 31 30 29 28 27 28 29 29 29 29 29 29 28 28 28 28 27 27 27 26 25 24 24 23 23 23 23 23 24 27 28 27 28 29 29 28 27 26 25 25
37 36 35 33 33 33 32 32 34 34 32 32 32 31 30 30 29 29 29 28 27 26 25 24 24 24 24 24 24 23 23 25 26 26 27 28 28 28 27 27 27 26
43 41 39 38 38 36 34 35 37 37 36 34 34 34 33 32 31 31 30 29 27 26 26 26 26 26 25 25 24 23 22 23 25 26 26 25 25 26 28 28 27 26
Wind_Direction
258 260 261 262 262 263 263 263 264 264 265 266 267 267 267 268 269 269 269 269 269 269 269 269 268 268 268 268 268 269 269 269 269 270 269 269 270 270 269 270 269 269
258 259 261 261 261 262 262 262 263 264 265 266 267 267 268 269 269 270 271 271 271 271 270 269 269 269 269 269 269 269 270 269 269 269 269 269 270 270 269 270 269 269
258 260 260 261 262 262 263 264 264 264 265 266 266 266 267 268 269 270 271 272 271 271 271 270 270 270 270 271 271 271 270 269 270 270 270 270 270 269 269 268 268 268
259 260 261 262 263 263 264 264 264 264 264 265 265 266 266 268 269 270 270 271 271 272 272 272 271 271 271 271 271 271 270 270 270 269 269 269 268 267 268 269 269 269
260 260 261 262 262 263 263 263 263 263 263 264 264 265 266 267 268 269 270 270 271 272 273 273 273 272 272 271 271 270 270 270 269 269 269 269 268 269 271 271 271 270
258 259 260 260 261 261 261 261 261 261 262 262 263 264 265 266 267 268 269 270 271 272 272 272 272 272 271 271 270 270 270 270 270 270 270 270 271 271 271 272 273 272
257 258 259 261 261 260 260 259 259 259 260 261 261 262 263 264 266 267 269 270 270 271 271 271 271 270 270 269 269 270 270 270 271 270 269 269 270 271 271 271 271 271
257 258 260 261 260 260 258 257 257 256 257 258 258 259 260 263 265 267 268 269 270 270 270 270 270 268 268 267 266 267 267 268 269 268 268 268 269 270 270 268 268 272
259 259 260 261 260 259 257 255 254 254 254 255 255 256 259 262 264 266 268 268 269 269 268 267 266 264 264 264 264 264 265 264 263 264 266 267 267 268 269 269 270 272
262 261 261 261 260 260 258 255 253 252 252 253 253 255 258 261 263 265 266 266 266 265 264 263 261 260 260 260 260 261 261 262 262 263 264 263 263 267 270 270 270 270
266 264 262 262 262 261 260 257 254 252 251 252 253 255 257 259 261 262 263 263 263 262 261 261 259 258 256 255 256 257 259 261 262 263 262 260 260 263 263 264 265 266
268 267 265 264 262 261 260 258 255 252 251 251 253 255 256 257 258 259 260 260 260 261 261 260 258 256 254 253 253 254 257 260 260 260 261 259 256 255 256 260 263 263
269 269 268 265 263 261 258 257 256 254 253 252 253 254 255 256 257 258 259 259 259 260 260 259 258 255 252 252 252 252 253 257 257 254 253 252 252 254 256 261 267 266
270 268 267 265 263 261 259 257 255 254 253 253 253 254 254 256 257 257 258 258 257 258 258 258 257 252 249 249 250 250 251 252 249 245 247 249 249 252 253 257 265 266
270 267 266 264 263 262 261 259 257 255 254 253 253 253 254 255 255 256 256 256 256 256 255 254 252 249 248 246 245 245 246 246 240 237 242 243 243 247 249 250 251 248
270 267 265 263 262 262 262 261 259 256 254 252 251 252 252 253 254 255 255 255 255 253 252 251 249 246 243 241 239 238 238 236 234 237 237 236 243 252 255 256 251 241
270 266 264 262 261 261 261 260 258 254 252 250 249 250 250 251 253 253 253 253 252 251 250 248 247 244 241 240 237 233 233 234 235 238 234 232 242 250 253 260 256 241
271 267 265 264 262 261 260 258 255 252 250 249 248 249 250 250 251 250 249 248 248 249 248 246 245 244 243 240 234 229 231 235 236 234 232 236 243 245 245 253 251 238
271 268 265 264 262 260 258 256 253 252 251 250 249 249 249 248 247 246 245 245 245 247 248 247 247 246 241 235 229 227 231 234 233 231 232 239 245 242 242 246 245 240
268 267 265 263 260 258 255 253 252 251 250 249 248 247 245 244 244 244 244 245 246 247 248 249 249 247 241 234 228 228 231 234 234 232 233 241 245 241 240 243 245 245
263 264 263 262 260 259 256 254 252 250 249 248 246 245 244 243 244 244 245 246 247 248 249 250 250 249 245 240 233 230 231 233 234 232 233 239 243 239 237 242 245 245
256 259 261 262 262 262 262 260 259 255 252 250 247 246 245 244 244 245 246 248 249 250 251 252 253 252 250 246 240 234 233 234 235 233 231 235 240 238 238 244 245 241
251 254 257 260 262 264 266 267 267 262 258 254 251 249 248 247 247 247 248 249 250 251 253 253 254 253 250 248 244 239 237 237 238 235 231 233 238 239 241 245 245 240
250 250 253 257 261 265 268 269 269 266 262 258 254 252 251 249 249 249 249 250 250 251 253 253 253 250 247 245 242 239 238 237 236 234 232 234 239 241 241 242 245 246
250 250 251 255 260 264 268 269 268 265 262 259 256 254 251 250 249 249 249 250 250 252 252 251 250 246 242 240 237 235 234 232 230 229 229 234 240 243 244 243 245 250
251 251 253 256 259 263 266 268 266 263 260 258 257 255 252 250 249 249 250 250 249 249 249 247 246 242 238 236 233 232 231 228 227 226 227 234 242 249 252 251 249 250